Location: G�migny
(47.9646°N, 1.6950°E)
Time: 14:39:28
(UTC+00:00)

YAOGAN 6 - Pass Details

Date: 26 January 2020
Orbit: 465 x 505 km, 97.0° (Epoch: 28 February)

Event Time Altitude Azimuth Distance (km) Brightness Sun altitude
Rises 19:03:09 0° 213° (SSW) 2,587 6.8 -23.3°
Reaches altitude 10° 19:06:16 10° 243° (WSW) 1,703 6.2 -23.8°
Maximum altitude 19:07:57 13° 271° (W) 1,536 6.1 -24.1°
Drops below altitude 10° 19:09:39 10° 298° (WNW) 1,701 6.1 -24.4°
Sets 19:12:46 0° 328° (NNW) 2,581 6.7 -24.9°
